Date String (YYYY-MM-DD hh:mm:ss) UTC,Instrument flags,Ambient pressure (hPa),Sample flow (lpm),Bypass flow (lpm),Sample temperature (°C),Ambient temperature (°C),ASC tube jacket temperature (°C),LED temperature (°C),Box temperature (°C),Sample RH (%),Span deviation,Mass concentration (μg/m³),Mass concentration (μg/m³),Mass concentration (μg/m³)
DateTimeUTC,F1_M11,P_M11,Q1_M11,Q2_M11,T1_M11,T2_M11,T3_M11,T4_M11,T5_M11,U1_M11,ZSPAN_M11,X2_M11,X0_M11,X1_M11
2021-09-29 14:00:00,,0822.4,4.99,0.00,30.3,29.3,00.0,39.4,32.0,22.2,0002.0,0005.52,0016.58,0004.43
2021-09-29 14:01:00,,0822.4,5.01,0.00,30.3,29.3,00.0,39.4,32.0,22.4,0001.9,0005.57,0016.79,0004.45
2021-09-29 14:02:00,,0822.4,4.99,0.00,30.3,29.3,00.0,39.4,32.0,22.5,0001.9,0005.65,0017.39,0004.47
2021-09-29 14:03:00,,0822.5,5.00,0.00,30.3,29.3,00.0,39.4,32.0,22.6,0001.7,0005.67,0018.37,0004.49
2021-09-29 14:04:00,,0822.6,4.99,0.00,30.3,29.4,00.0,39.4,32.0,22.6,0001.7,0005.69,0016.89,0004.51
2021-09-29 14:05:00,,0822.5,5.01,0.00,30.3,29.4,00.0,39.4,32.0,22.6,0001.8,0005.72,0017.21,0004.53
2021-09-29 14:06:00,,0822.6,4.99,0.00,30.3,29.4,00.0,39.4,32.0,22.5,0001.9,0005.76,0017.71,0004.55
2021-09-29 14:07:00,,0822.6,4.99,0.00,30.3,29.4,00.0,39.4,32.0,22.4,0001.6,0005.75,0017.52,0004.55
2021-09-29 14:08:00,,0822.7,4.99,0.00,30.3,29.4,00.0,39.4,32.0,22.4,0001.4,0005.76,0017.58,0004.55
2021-09-29 14:09:00,,0822.6,5.00,0.00,30.3,29.4,00.0,39.4,32.0,22.4,0001.3,0005.84,0017.81,0004.55
2021-09-29 14:10:00,,0822.6,4.99,0.00,30.3,29.4,00.0,39.4,32.0,22.3,0001.2,0005.91,0018.86,0004.58
2021-09-29 14:11:00,,0822.7,5.01,0.00,30.3,29.4,00.0,39.4,32.0,22.3,0001.4,0005.89,0019.37,0004.59
2021-09-29 14:12:00,,0822.7,5.00,0.00,30.3,29.4,00.0,39.4,32.1,22.3,0001.4,0005.95,0019.87,0004.60
2021-09-29 14:13:00,,0822.7,5.02,0.00,30.3,29.4,00.0,39.4,32.1,22.0,0001.5,0005.93,0020.27,0004.61
2021-09-29 14:14:00,,0822.8,4.99,0.00,30.3,29.5,00.0,39.4,32.1,21.9,0001.7,0005.91,0019.53,0004.61
2021-09-29 14:15:00,,0822.8,5.00,0.00,30.3,29.5,00.0,39.4,32.1,22.0,0001.6,0005.89,0019.97,0004.61
2021-09-29 14:16:00,,0822.7,5.01,0.00,30.3,29.5,00.0,39.4,32.1,21.6,0001.5,0005.85,0019.39,0004.60
2021-09-29 14:17:00,,0822.8,4.99,0.00,30.3,29.5,00.0,39.4,32.1,21.4,0001.3,0005.82,0019.08,0004.59
2021-09-29 14:18:00,,0822.7,5.00,0.00,30.3,29.5,00.0,39.4,32.1,21.0,0001.3,0005.79,0018.11,0004.60
2021-09-29 14:19:00,,0822.7,5.00,0.00,30.3,29.5,00.0,39.4,32.1,21.1,0001.7,0005.77,0017.39,0004.60
2021-09-29 14:20:00,,0822.7,5.00,0.00,30.3,29.5,00.0,39.4,32.1,21.3,0001.9,0005.70,0018.06,0004.60
2021-09-29 14:21:00,,0822.8,5.01,0.00,30.3,29.5,00.0,39.4,32.1,21.2,0002.1,0005.64,0017.13,0004.59
2021-09-29 14:22:00,,0822.7,4.98,0.00,30.4,29.5,00.0,39.4,32.1,21.3,0002.4,0005.62,0016.97,0004.58
2021-09-29 14:23:00,,0822.7,5.00,0.00,30.4,29.5,00.0,39.5,32.1,21.4,0002.4,0005.55,0016.49,0004.58
2021-09-29 14:24:00,,0822.7,4.99,0.00,30.4,29.5,00.0,39.5,32.1,21.3,0002.3,0005.56,0016.44,0004.58
2021-09-29 14:25:00,,0822.7,5.02,0.00,30.4,29.5,00.0,39.5,32.1,21.1,0002.4,0005.57,0015.93,0004.59
2021-09-29 14:26:00,,0822.7,4.99,0.00,30.4,29.5,00.0,39.5,32.1,21.2,0002.4,0005.57,0016.12,0004.59
2021-09-29 14:27:00,,0822.7,5.01,0.00,30.4,29.5,00.0,39.5,32.1,21.2,0002.6,0005.59,0016.41,0004.60
2021-09-29 14:28:00,,0822.7,5.00,0.00,30.4,29.5,00.0,39.5,32.1,21.4,0002.8,0005.61,0016.34,0004.61
2021-09-29 14:29:00,,0822.7,5.00,0.00,30.4,29.5,00.0,39.5,32.1,21.2,0003.0,0005.63,0016.32,0004.61
2021-09-29 14:30:00,,0822.7,4.99,0.00,30.4,29.5,00.0,39.5,32.1,21.2,0002.7,0005.62,0015.53,0004.61
2021-09-29 14:31:00,,0822.8,5.01,0.00,30.4,29.5,00.0,39.5,32.1,21.3,0002.7,0005.60,0014.06,0004.63
2021-09-29 14:32:00,,0822.8,4.99,0.00,30.4,29.5,00.0,39.5,32.1,21.4,0002.4,0005.57,0013.86,0004.64
2021-09-29 14:33:00,,0822.8,5.00,0.00,30.4,29.6,00.0,39.5,32.1,21.4,0002.0,0005.58,0014.36,0004.65
2021-09-29 14:34:00,,0822.7,5.00,0.00,30.4,29.6,00.0,39.5,32.1,21.5,0002.0,0005.59,0014.44,0004.66
2021-09-29 14:35:00,,0822.8,5.01,0.00,30.4,29.6,00.0,39.5,32.1,21.4,0001.7,0005.54,0014.24,0004.65
2021-09-29 14:36:00,,0822.8,5.00,0.00,30.4,29.6,00.0,39.5,32.1,21.5,0001.4,0005.53,0014.19,0004.65
2021-09-29 14:37:00,,0822.9,4.98,0.00,30.4,29.6,00.0,39.5,32.2,21.3,0001.4,0005.54,0014.24,0004.66
2021-09-29 14:38:00,,0822.9,5.00,0.00,30.4,29.6,00.0,39.5,32.2,21.2,0001.2,0005.53,0014.26,0004.66
2021-09-29 14:39:00,,0823.0,5.00,0.00,30.5,29.6,00.0,39.5,32.2,21.2,0001.2,0005.55,0014.80,0004.65
2021-09-29 14:40:00,,0823.0,5.00,0.00,30.5,29.6,00.0,39.5,32.2,21.3,0001.3,0005.59,0015.74,0004.65
2021-09-29 14:41:00,,0822.9,5.01,0.00,30.5,29.7,00.0,39.5,32.2,21.3,0001.1,0005.59,0016.43,0004.64
2021-09-29 14:42:00,,0822.9,4.99,0.00,30.5,29.7,00.0,39.5,32.2,21.2,0000.9,0005.62,0017.12,0004.63
2021-09-29 14:43:00,,0823.0,5.00,0.00,30.5,29.7,00.0,39.5,32.2,21.2,0001.4,0005.65,0017.61,0004.63
2021-09-29 14:44:00,,0823.0,5.02,0.00,30.5,29.7,00.0,39.6,32.3,21.3,0001.5,0005.64,0017.43,0004.63
2021-09-29 14:45:00,,0823.1,4.98,0.00,30.5,29.7,00.0,39.6,32.3,21.3,0001.7,0005.64,0017.24,0004.63
2021-09-29 14:46:00,,0823.1,5.01,0.00,30.5,29.7,00.0,39.6,32.3,21.3,0001.7,0005.72,0016.83,0004.63
2021-09-29 14:47:00,,0823.1,5.00,0.00,30.5,29.7,00.0,39.6,32.3,21.3,0001.6,0005.77,0017.30,0004.61
2021-09-29 14:48:00,,0823.1,4.99,0.00,30.6,29.6,00.0,39.6,32.2,21.4,0001.4,0005.79,0017.59,0004.61
2021-09-29 14:49:00,,0823.1,5.00,0.00,30.5,27.6,00.0,39.6,31.7,21.5,0001.4,0005.77,0016.91,0004.61
2021-09-29 14:50:00,,0823.0,5.00,0.00,30.2,25.8,00.0,39.5,31.2,21.8,0001.6,0005.76,0016.77,0004.63
2021-09-29 14:51:00,,0823.0,5.00,0.00,30.1,25.7,00.0,39.4,31.1,21.9,0001.4,0005.72,0017.17,0004.63
2021-09-29 14:52:00,,0823.0,5.02,0.00,29.9,26.2,00.0,39.4,31.1,22.1,0001.3,0005.74,0017.14,0004.65
2021-09-29 14:53:00,,0823.1,4.99,0.00,29.9,26.8,00.0,39.3,31.2,22.3,0001.3,0005.76,0017.99,0004.65
2021-09-29 14:54:00,,0823.1,5.00,0.00,29.8,27.2,00.0,39.2,31.3,22.4,0001.3,0005.78,0017.86,0004.66
2021-09-29 14:55:00,,0823.1,4.99,0.00,29.8,27.6,00.0,39.2,31.4,22.4,0001.6,0005.78,0018.37,0004.67
2021-09-29 14:56:00,,0823.1,5.01,0.00,29.9,27.9,00.0,39.2,31.4,22.4,0001.7,0005.78,0018.45,0004.70
2021-09-29 14:57:00,,0823.1,5.00,0.00,29.9,28.2,00.0,39.2,31.5,22.3,0002.1,0005.82,0019.25,0004.74
2021-09-29 14:58:00,,0823.1,5.01,0.00,29.9,28.4,00.0,39.1,31.5,22.4,0002.1,0005.82,0019.39,0004.79
2021-09-29 14:59:00,,0823.1,5.01,0.00,29.9,28.5,00.0,39.1,31.6,22.4,0002.2,0005.83,0019.49,0004.82
